Погода в Окунево

Россия / Кировская область     57°19′53″N   49°21′37″E
темп.,
°C
ветер,
м/с
пор.,
м/с
влажн.,
%
обл.,
%
осадки,
мм/ч
давл.,
гПа
погр.,
м
6 мая, чт
чт600:00+3з5119168 0.1 1009399
03:00+1з49915 0.1 1011260
06:00+3з478317 0.0 1013379
09:00+8з466988 0.0 1014926
12:00+10юз466710 0.0 1014834
15:00+15юз475572 0.0 10131498
18:00+14ююз477480 0.2 1012200
21:00+11ю51285100 0.3 1013217
7 мая, пт
пт700:00+10ююз5148699 0.0 1013312
03:00+9ю51386100 0.0 1013287
06:00+11ю51379100 0.0 1013367
09:00+15ю71260100 0.0 1012703
12:00+17ююз81351100 0.0 10122285
15:00+17ююз81354100 0.3 10111969
18:00+14ююз71266100 0.6 1011656
21:00+8зсз4987100 1.3 1015491
8 мая, сб
сб800:00+6зсз249462 0.4 101799
03:00+5сз229390 0.4 101918
06:00+7св11820 0.0 1019147
09:00+11в33611 0.0 1019857
12:00+14вюв45485 0.0 10181462
15:00+15ююв565831 0.0 10161347
18:00+14ююв5966100 0.0 1015395
21:00+11юв41178100 0.0 1014247
9 мая, вс
вс900:00+11ююв71777100 0.0 1012409
03:00+12ююв71670100 0.0 1012528
06:00+13ю71470100 0.0 1012597
09:00+13ююз51275100 0.1 1012847
12:00+13ю51180100 1.2 1013829
15:00+11з4588100 1.3 1015450
18:00+9зсз4891100 0.6 1017509
21:00+8сз4793100 3.8 1019481
10 мая, пн
пн1000:00+7сз4792100 1.2 1020425
03:00+7сз3792100 2.3 1022392
06:00+6ссз4788100 0.1 1024499
09:00+8ссз5676100 0.1 1026875
12:00+9с466693 0.0 10271205
15:00+13ссз56475 0.1 10271628
18:00+12ссз23585 0.0 102881
21:00+8сз226154 0.0 103011